| time (UTC) | temp F | wind direction | speed MPH | gust MPH | rain 1hr in | rain 24hr in | rain mn in | humidity % | barometer mb |
| 20260507063724 | 60 | 106 | 2.0 | 3.0 | 0.00 | 0.00 | 0.00 | 77 | 1018.9 |
| 20260507063224 | 61 | 104 | 1.0 | 3.0 | 0.00 | 0.00 | 0.00 | 76 | 1018.9 |
| 20260507062722 | 61 | 85 | 0.0 | 2.0 | 0.00 | 0.00 | 0.00 | 76 | 1018.8 |
| 20260507062223 | 61 | 85 | 2.0 | 2.0 | 0.00 | 0.00 | 0.00 | 76 | 1018.7 |
| 20260507061722 | 62 | 85 | 0.0 | 3.0 | 0.00 | 0.00 | 0.00 | 75 | 1018.8 |
| 20260507061223 | 62 | 85 | 1.0 | 3.0 | 0.00 | 0.00 | 0.00 | 75 | 1018.7 |
| 20260507060722 | 62 | 85 | 2.0 | 3.0 | 0.00 | 0.00 | 0.00 | 75 | 1018.7 |
| 20260507060225 | 62 | 85 | 0.0 | 2.0 | 0.00 | 0.00 | 0.00 | 75 | 1018.7 |
| 20260507055723 | 62 | 85 | 2.0 | 2.0 | 0.00 | 0.00 | 0.00 | 75 | 1018.7 |
| 20260507055224 | 62 | 85 | 0.0 | 2.0 | 0.00 | 0.00 | 0.00 | 75 | 1018.7 |
| 20260507054723 | 62 | 85 | 2.0 | 2.0 | 0.00 | 0.00 | 0.00 | 75 | 1018.6 |
| 20260507054223 | 62 | 85 | 0.0 | 0.0 | 0.00 | 0.00 | 0.00 | 75 | 1018.7 |
| 20260507053723 | 62 | 85 | 0.0 | 2.0 | 0.00 | 0.00 | 0.00 | 75 | 1018.7 |
| 20260507053223 | 62 | 85 | 0.0 | 2.0 | 0.00 | 0.00 | 0.00 | 75 | 1018.8 |
| 20260507052939 | 62 | 85 | 2.0 | 3.0 | 0.00 | 0.00 | 0.00 | 75 | 1018.8 |
| 20260507052223 | 62 | 85 | 2.0 | 3.0 | 0.00 | 0.00 | 0.00 | 75 | 1018.7 |
| 20260507051722 | 62 | 85 | 2.0 | 4.0 | 0.00 | 0.00 | 0.00 | 75 | 1018.7 |
| 20260507051223 | 62 | 85 | 2.0 | 4.0 | 0.00 | 0.00 | 0.00 | 76 | 1018.7 |
| 20260507050721 | 62 | 85 | 2.0 | 2.0 | 0.00 | 0.00 | 0.00 | 76 | 1018.7 |
| 20260507050222 | 62 | 85 | 0.0 | 2.0 | 0.00 | 0.00 | 0.00 | 75 | 1018.7 |
| 20260507045720 | 62 | 85 | 0.0 | 0.0 | 0.00 | 0.00 | 0.00 | 75 | 1018.7 |
| 20260507045221 | 62 | 85 | 0.0 | 0.0 | 0.00 | 0.00 | 0.00 | 75 | 1018.6 |
| 20260507044720 | 62 | 85 | 0.0 | 0.0 | 0.00 | 0.00 | 0.00 | 75 | 1018.6 |
| 20260507044442 | 62 | 85 | 0.0 | 2.0 | 0.00 | 0.00 | 0.00 | 74 | 1018.6 |
| 20260507043720 | 62 | 85 | 0.0 | 3.0 | 0.00 | 0.00 | 0.00 | 74 | 1018.6 |
| 20260507043221 | 62 | 85 | 1.0 | 3.0 | 0.00 | 0.00 | 0.00 | 74 | 1018.5 |
| 20260507042720 | 62 | 85 | 0.0 | 3.0 | 0.00 | 0.00 | 0.00 | 74 | 1018.5 |
| 20260507042446 | 63 | 85 | 2.0 | 3.0 | 0.00 | 0.00 | 0.00 | 74 | 1018.4 |
| 20260507041719 | 63 | 85 | 1.0 | 3.0 | 0.00 | 0.00 | 0.00 | 73 | 1018.5 |
| 20260507041443 | 63 | 85 | 0.0 | 0.0 | 0.00 | 0.00 | 0.00 | 73 | 1018.4 |
| 20260507040719 | 63 | 85 | 0.0 | 0.0 | 0.00 | 0.00 | 0.00 | 72 | 1018.4 |
| 20260507040220 | 64 | 85 | 0.0 | 0.0 | 0.00 | 0.00 | 0.00 | 71 | 1018.2 |
| 20260507035719 | 64 | 85 | 0.0 | 0.0 | 0.00 | 0.00 | 0.00 | 71 | 1018.3 |
| 20260507035440 | 64 | 85 | 0.0 | 0.0 | 0.00 | 0.00 | 0.00 | 70 | 1018.3 |
| 20260507034946 | 64 | 85 | 0.0 | 0.0 | 0.00 | 0.00 | 0.00 | 70 | 1018.2 |
| 20260507034220 | 64 | 85 | 0.0 | 0.0 | 0.00 | 0.00 | 0.00 | 70 | 1018.3 |
| 20260507033719 | 65 | 85 | 0.0 | 0.0 | 0.00 | 0.00 | 0.00 | 70 | 1018.1 |
| 20260507033220 | 65 | 85 | 0.0 | 0.0 | 0.00 | 0.00 | 0.00 | 70 | 1018.1 |
| 20260507032938 | 65 | 85 | 0.0 | 0.0 | 0.00 | 0.00 | 0.00 | 70 | 1018.1 |
| 20260507032219 | 65 | 85 | 0.0 | 2.0 | 0.00 | 0.00 | 0.00 | 70 | 1017.9 |
| 20260507031718 | 65 | 85 | 1.0 | 2.0 | 0.00 | 0.00 | 0.00 | 69 | 1017.9 |
| 20260507031218 | 65 | 85 | 0.0 | 0.0 | 0.00 | 0.00 | 0.00 | 69 | 1018.1 |
| 20260507030717 | 65 | 85 | 0.0 | 0.0 | 0.00 | 0.00 | 0.00 | 68 | 1017.9 |
| 20260507030219 | 66 | 85 | 0.0 | 0.0 | 0.00 | 0.00 | 0.00 | 67 | 1017.9 |
| 20260507025717 | 66 | 85 | 0.0 | 0.0 | 0.00 | 0.00 | 0.00 | 67 | 1017.9 |
| 20260507025219 | 66 | 85 | 0.0 | 0.0 | 0.00 | 0.00 | 0.00 | 67 | 1017.9 |
| 20260507024718 | 67 | 85 | 0.0 | 0.0 | 0.00 | 0.00 | 0.00 | 66 | 1017.9 |
| 20260507024219 | 67 | 85 | 0.0 | 0.0 | 0.00 | 0.00 | 0.00 | 66 | 1018.1 |
| 20260507023717 | 67 | 85 | 0.0 | 0.0 | 0.00 | 0.00 | 0.00 | 66 | 1017.9 |
| 20260507023218 | 67 | 85 | 0.0 | 0.0 | 0.00 | 0.00 | 0.00 | 66 | 1018.1 |
| 20260507022937 | 67 | 85 | 0.0 | 0.0 | 0.00 | 0.00 | 0.00 | 67 | 1017.9 |
| 20260507022220 | 67 | 85 | 0.0 | 1.0 | 0.00 | 0.00 | 0.00 | 67 | 1017.9 |
| 20260507021718 | 67 | 85 | 0.0 | 3.0 | 0.00 | 0.00 | 0.00 | 67 | 1018.1 |
| 20260507021218 | 68 | 85 | 2.0 | 3.0 | 0.00 | 0.00 | 0.00 | 67 | 1018.1 |
| 20260507020718 | 68 | 83 | 0.0 | 3.0 | 0.00 | 0.00 | 0.00 | 67 | 1018.1 |
| 20260507020218 | 68 | 83 | 1.0 | 2.0 | 0.00 | 0.00 | 0.00 | 66 | 1017.9 |
| 20260507015717 | 67 | 83 | 0.0 | 0.0 | 0.00 | 0.00 | 0.00 | 65 | 1018.1 |
| 20260507015657 | 67 | 83 | 0.0 | 3.0 | 0.00 | 0.00 | 0.00 | 65 | 1018.1 |
| 20260507014717 | 67 | 83 | 0.0 | 3.0 | 0.00 | 0.00 | 0.00 | 65 | 1018.1 |
| 20260507014218 | 67 | 83 | 2.0 | 3.0 | 0.00 | 0.00 | 0.00 | 65 | 1018.1 |
| 20260507013717 | 67 | 83 | 2.0 | 3.0 | 0.00 | 0.00 | 0.00 | 65 | 1018.1 |
| 20260507013218 | 67 | 83 | 2.0 | 3.0 | 0.00 | 0.00 | 0.00 | 64 | 1018.1 |
| 20260507012717 | 67 | 83 | 1.0 | 3.0 | 0.00 | 0.00 | 0.00 | 64 | 1018.1 |
| 20260507012218 | 67 | 86 | 1.0 | 5.0 | 0.00 | 0.00 | 0.00 | 64 | 1018.2 |
| 20260507011941 | 67 | 86 | 3.0 | 5.0 | 0.00 | 0.00 | 0.00 | 64 | 1018.1 |
| 20260507011217 | 68 | 85 | 4.0 | 5.0 | 0.00 | 0.00 | 0.00 | 63 | 1018.1 |
| 20260507010716 | 68 | 80 | 3.0 | 5.0 | 0.00 | 0.00 | 0.00 | 63 | 1018.2 |
| 20260507010218 | 69 | 85 | 3.0 | 3.0 | 0.00 | 0.00 | 0.00 | 61 | 1018.3 |
| 20260507005715 | 69 | 85 | 2.0 | 3.0 | 0.00 | 0.00 | 0.00 | 60 | 1018.3 |
| 20260507005216 | 69 | 85 | 2.0 | 4.0 | 0.00 | 0.00 | 0.00 | 59 | 1018.2 |
| 20260507004715 | 69 | 85 | 3.0 | 4.0 | 0.00 | 0.00 | 0.00 | 59 | 1018.3 |
| 20260507004215 | 70 | 83 | 3.0 | 6.0 | 0.00 | 0.00 | 0.00 | 58 | 1018.3 |
| 20260507003940 | 71 | 85 | 5.0 | 6.0 | 0.00 | 0.00 | 0.00 | 57 | 1018.4 |
| 20260507003215 | 71 | 87 | 3.0 | 5.0 | 0.00 | 0.00 | 0.00 | 56 | 1018.4 |
| 20260507002716 | 72 | 85 | 3.0 | 5.0 | 0.00 | 0.00 | 0.00 | 56 | 1018.3 |
| 20260507002215 | 72 | 125 | 0.0 | 4.0 | 0.00 | 0.00 | 0.00 | 56 | 1018.5 |
| 20260507001938 | 72 | 125 | 1.0 | 4.0 | 0.00 | 0.00 | 0.00 | 55 | 1018.4 |
| 20260507001213 | 72 | 121 | 1.0 | 6.0 | 0.00 | 0.00 | 0.00 | 55 | 1018.5 |
| 20260507000714 | 72 | 118 | 2.0 | 6.0 | 0.00 | 0.00 | 0.00 | 56 | 1018.5 |
| 20260507000213 | 72 | 125 | 1.0 | 5.0 | 0.00 | 0.00 | 0.00 | 57 | 1018.6 |
| 20260506235713 | 72 | 120 | 2.0 | 5.0 | 0.00 | 0.00 | 0.00 | 56 | 1018.6 |
| 20260506235432 | 72 | 134 | 2.0 | 5.0 | 0.00 | 0.00 | 0.00 | 57 | 1018.7 |
| 20260506234714 | 73 | 114 | 4.0 | 5.0 | 0.00 | 0.00 | 0.00 | 57 | 1018.7 |
| 20260506234433 | 73 | 123 | 2.0 | 5.0 | 0.00 | 0.00 | 0.00 | 56 | 1018.7 |
| 20260506233713 | 73 | 134 | 2.0 | 5.0 | 0.00 | 0.00 | 0.00 | 54 | 1018.8 |
| 20260506233213 | 73 | 135 | 1.0 | 7.0 | 0.00 | 0.00 | 0.00 | 53 | 1018.9 |
| 20260506232712 | 73 | 134 | 3.0 | 7.0 | 0.00 | 0.00 | 0.00 | 53 | 1018.9 |
| 20260506232213 | 73 | 111 | 2.0 | 5.0 | 0.00 | 0.00 | 0.00 | 53 | 1018.9 |
| 20260506231715 | 74 | 134 | 2.0 | 5.0 | 0.00 | 0.00 | 0.00 | 53 | 1019.0 |
| 20260506231213 | 74 | 142 | 3.0 | 5.0 | 0.00 | 0.00 | 0.00 | 52 | 1019.0 |
| 20260506230713 | 74 | 102 | 3.0 | 5.0 | 0.00 | 0.00 | 0.00 | 54 | 1019.2 |
| 20260506230212 | 75 | 113 | 2.0 | 5.0 | 0.00 | 0.00 | 0.00 | 55 | 1019.2 |
| 20260506225713 | 75 | 100 | 3.0 | 5.0 | 0.00 | 0.00 | 0.00 | 52 | 1019.2 |
| 20260506225211 | 75 | 131 | 3.0 | 6.0 | 0.00 | 0.00 | 0.00 | 54 | 1019.3 |
| 20260506224713 | 75 | 102 | 2.0 | 7.0 | 0.00 | 0.00 | 0.00 | 54 | 1019.4 |
| 20260506224438 | 74 | 120 | 2.0 | 7.0 | 0.00 | 0.00 | 0.00 | 54 | 1019.5 |
| 20260506223712 | 74 | 130 | 2.0 | 7.0 | 0.00 | 0.00 | 0.00 | 54 | 1019.4 |
| 20260506223211 | 74 | 97 | 3.0 | 7.0 | 0.00 | 0.00 | 0.00 | 54 | 1019.5 |
| 20260506222712 | 74 | 94 | 4.0 | 9.0 | 0.00 | 0.00 | 0.00 | 54 | 1019.6 |
| 20260506222212 | 74 | 90 | 4.0 | 9.0 | 0.00 | 0.00 | 0.00 | 54 | 1019.7 |
| 20260506221713 | 74 | 94 | 4.0 | 9.0 | 0.00 | 0.00 | 0.00 | 53 | 1019.8 |
| 20260506221212 | 73 | 103 | 3.0 | 7.0 | 0.00 | 0.00 | 0.00 | 55 | 1019.9 |
| 20260506220712 | 73 | 99 | 3.0 | 7.0 | 0.00 | 0.00 | 0.00 | 56 | 1019.9 |
| 20260506220210 | 72 | 86 | 4.0 | 10.0 | 0.00 | 0.00 | 0.00 | 56 | 1020.0 |
| 20260506215713 | 72 | 94 | 5.0 | 12.0 | 0.00 | 0.00 | 0.00 | 55 | 1020.1 |
| 20260506215211 | 72 | 90 | 6.0 | 12.0 | 0.00 | 0.00 | 0.00 | 54 | 1020.0 |
| 20260506214713 | 73 | 104 | 5.0 | 9.0 | 0.00 | 0.00 | 0.00 | 54 | 1020.2 |
| 20260506214433 | 73 | 94 | 5.0 | 9.0 | 0.00 | 0.00 | 0.00 | 54 | 1020.2 |
| 20260506213945 | 73 | 107 | 5.0 | 7.0 | 0.00 | 0.00 | 0.00 | 54 | 1020.3 |
| 20260506213211 | 73 | 97 | 3.0 | 6.0 | 0.00 | 0.00 | 0.00 | 55 | 1020.3 |
| 20260506212936 | 73 | 87 | 4.0 | 5.0 | 0.00 | 0.00 | 0.00 | 55 | 1020.3 |
| 20260506212211 | 72 | 97 | 3.0 | 9.0 | 0.00 | 0.00 | 0.00 | 55 | 1020.4 |
| 20260506211710 | 72 | 94 | 5.0 | 9.0 | 0.00 | 0.00 | 0.00 | 55 | 1020.5 |
| 20260506211209 | 72 | 121 | 2.0 | 5.0 | 0.00 | 0.00 | 0.00 | 55 | 1020.5 |
| 20260506210710 | 72 | 103 | 3.0 | 7.0 | 0.00 | 0.00 | 0.00 | 55 | 1020.6 |
| 20260506210210 | 72 | 93 | 5.0 | 7.0 | 0.00 | 0.00 | 0.00 | 56 | 1020.6 |
| 20260506205709 | 72 | 83 | 3.0 | 7.0 | 0.00 | 0.00 | 0.00 | 54 | 1020.6 |
| 20260506205209 | 72 | 83 | 4.0 | 10.0 | 0.00 | 0.00 | 0.00 | 56 | 1020.6 |
| 20260506204932 | 71 | 83 | 5.0 | 10.0 | 0.00 | 0.00 | 0.00 | 55 | 1020.5 |
| 20260506204208 | 72 | 103 | 4.0 | 7.0 | 0.00 | 0.00 | 0.00 | 55 | 1020.6 |
| 20260506203709 | 72 | 97 | 4.0 | 6.0 | 0.00 | 0.00 | 0.00 | 57 | 1020.6 |
| 20260506203209 | 72 | 99 | 4.0 | 6.0 | 0.00 | 0.00 | 0.00 | 57 | 1020.6 |
| 20260506202709 | 72 | 107 | 3.0 | 6.0 | 0.00 | 0.00 | 0.00 | 56 | 1020.6 |
| 20260506202208 | 71 | 107 | 1.0 | 6.0 | 0.00 | 0.00 | 0.00 | 59 | 1020.7 |
| 20260506201708 | 71 | 97 | 3.0 | 9.0 | 0.00 | 0.00 | 0.00 | 59 | 1020.8 |
| 20260506201209 | 71 | 103 | 3.0 | 9.0 | 0.00 | 0.00 | 0.00 | 58 | 1020.8 |
| 20260506200704 | 71 | 96 | 3.0 | 7.0 | 0.00 | 0.00 | 0.00 | 58 | 1020.8 |
| 20260506200204 | 71 | 127 | 3.0 | 9.0 | 0.00 | 0.00 | 0.00 | 61 | 1020.9 |
| 20260506195928 | 71 | 83 | 5.0 | 9.0 | 0.00 | 0.00 | 0.00 | 60 | 1020.9 |
| 20260506195202 | 71 | 103 | 4.0 | 7.0 | 0.00 | 0.00 | 0.00 | 60 | 1020.9 |
| 20260506194703 | 71 | 100 | 4.0 | 7.0 | 0.00 | 0.00 | 0.00 | 60 | 1020.9 |
| 20260506194425 | 71 | 117 | 3.0 | 7.0 | 0.00 | 0.00 | 0.00 | 60 | 1020.8 |
| 20260506193704 | 71 | 102 | 4.0 | 9.0 | 0.00 | 0.00 | 0.00 | 59 | 1020.9 |
| 20260506193203 | 71 | 96 | 3.0 | 9.0 | 0.00 | 0.00 | 0.00 | 61 | 1020.9 |
| 20260506192702 | 71 | 90 | 3.0 | 6.0 | 0.00 | 0.00 | 0.00 | 62 | 1020.9 |
| 20260506192202 | 71 | 99 | 2.0 | 7.0 | 0.00 | 0.00 | 0.00 | 60 | 1021.0 |
| 20260506191702 | 71 | 106 | 3.0 | 7.0 | 0.00 | 0.00 | 0.00 | 61 | 1020.8 |
| 20260506191202 | 71 | 106 | 3.0 | 6.0 | 0.00 | 0.00 | 0.00 | 60 | 1020.9 |
| 20260506190701 | 71 | 55 | 4.0 | 7.0 | 0.00 | 0.00 | 0.00 | 60 | 1021.0 |
| 20260506190202 | 71 | 106 | 4.0 | 9.0 | 0.00 | 0.00 | 0.00 | 59 | 1021.0 |
| 20260506185702 | 71 | 109 | 4.0 | 9.0 | 0.00 | 0.00 | 0.00 | 60 | 1021.0 |
| 20260506185202 | 71 | 104 | 3.0 | 9.0 | 0.00 | 0.00 | 0.00 | 60 | 1021.1 |
| 20260506184702 | 71 | 97 | 5.0 | 9.0 | 0.00 | 0.00 | 0.00 | 59 | 1021.1 |
| 20260506184202 | 71 | 93 | 4.0 | 9.0 | 0.00 | 0.00 | 0.00 | 60 | 1021.2 |
| 20260506183702 | 71 | 128 | 3.0 | 9.0 | 0.00 | 0.00 | 0.00 | 60 | 1021.2 |
| 20260506183202 | 71 | 97 | 2.0 | 9.0 | 0.00 | 0.00 | 0.00 | 61 | 1021.2 |
| 20260506182701 | 70 | 133 | 1.0 | 7.0 | 0.00 | 0.00 | 0.00 | 63 | 1021.3 |
| 20260506182431 | 70 | 83 | 4.0 | 10.0 | 0.00 | 0.00 | 0.00 | 63 | 1021.3 |
| 20260506181923 | 70 | 82 | 7.0 | 10.0 | 0.00 | 0.00 | 0.00 | 61 | 1021.3 |
| 20260506181431 | 70 | 83 | 4.0 | 9.0 | 0.00 | 0.00 | 0.00 | 64 | 1021.4 |
| 20260506180702 | 69 | 100 | 4.0 | 7.0 | 0.00 | 0.00 | 0.00 | 60 | 1021.3 |
| 20260506180202 | 70 | 109 | 3.0 | 6.0 | 0.00 | 0.00 | 0.00 | 61 | 1021.3 |
| 20260506175702 | 0 | 0.0 | 4.0 | 0.00 | 0.00 | 0.00 | 1021.3 | ||
| 20260506175204 | 69 | 109 | 2.0 | 5.0 | 0.00 | 0.00 | 0.00 | 62 | 1021.3 |
| 20260506174702 | 69 | 121 | 2.0 | 9.0 | 0.00 | 0.00 | 0.00 | 62 | 1021.3 |
| 20260506174202 | 69 | 99 | 4.0 | 9.0 | 0.00 | 0.00 | 0.00 | 62 | 1021.2 |
| 20260506173921 | 68 | 114 | 3.0 | 9.0 | 0.00 | 0.00 | 0.00 | 62 | 1021.2 |
| 20260506173202 | 69 | 90 | 5.0 | 9.0 | 0.00 | 0.00 | 0.00 | 63 | 1021.2 |
| 20260506172701 | 69 | 100 | 5.0 | 10.0 | 0.00 | 0.00 | 0.00 | 63 | 1021.2 |
| 20260506172202 | 68 | 128 | 3.0 | 10.0 | 0.00 | 0.00 | 0.00 | 63 | 1021.1 |
| 20260506171701 | 68 | 94 | 4.0 | 10.0 | 0.00 | 0.00 | 0.00 | 63 | 1021.1 |
| 20260506171200 | 69 | 94 | 4.0 | 10.0 | 0.00 | 0.00 | 0.00 | 63 | 1021.1 |
| 20260506170926 | 68 | 113 | 2.0 | 10.0 | 0.00 | 0.00 | 0.00 | 64 | 1021.0 |
| 20260506170202 | 68 | 125 | 2.0 | 5.0 | 0.00 | 0.00 | 0.00 | 66 | 1021.1 |
| 20260506165702 | 68 | 90 | 3.0 | 6.0 | 0.00 | 0.00 | 0.00 | 66 | 1021.0 |
| 20260506165202 | 67 | 103 | 3.0 | 7.0 | 0.00 | 0.00 | 0.00 | 67 | 1021.0 |
| 20260506164701 | 67 | 102 | 4.0 | 7.0 | 0.00 | 0.00 | 0.00 | 67 | 1021.0 |
| 20260506164202 | 67 | 113 | 1.0 | 4.0 | 0.00 | 0.00 | 0.00 | 67 | 1021.0 |
| 20260506163702 | 66 | 110 | 2.0 | 4.0 | 0.00 | 0.00 | 0.00 | 69 | 1020.9 |
| 20260506163422 | 66 | 114 | 2.0 | 4.0 | 0.00 | 0.00 | 0.00 | 69 | 1020.9 |
| 20260506162700 | 65 | 109 | 1.0 | 4.0 | 0.00 | 0.00 | 0.00 | 70 | 1020.8 |
| 20260506162200 | 65 | 100 | 2.0 | 4.0 | 0.00 | 0.00 | 0.00 | 70 | 1020.8 |
| 20260506161700 | 65 | 117 | 2.0 | 3.0 | 0.00 | 0.00 | 0.00 | 71 | 1020.9 |
| 20260506161159 | 64 | 118 | 2.0 | 4.0 | 0.00 | 0.00 | 0.00 | 71 | 1020.9 |
| 20260506160921 | 64 | 127 | 2.0 | 4.0 | 0.00 | 0.00 | 0.00 | 71 | 1020.9 |
| 20260506160159 | 64 | 103 | 1.0 | 5.0 | 0.00 | 0.00 | 0.00 | 71 | 1020.8 |
| 20260506155659 | 64 | 102 | 3.0 | 6.0 | 0.00 | 0.00 | 0.00 | 72 | 1020.8 |
| 20260506155159 | 64 | 102 | 3.0 | 6.0 | 0.00 | 0.00 | 0.00 | 72 | 1020.9 |
| 20260506154658 | 64 | 100 | 3.0 | 6.0 | 0.00 | 0.00 | 0.00 | 73 | 1020.8 |
| 20260506154159 | 64 | 107 | 2.0 | 3.0 | 0.00 | 0.00 | 0.00 | 74 | 1020.7 |
| 20260506153700 | 63 | 109 | 1.0 | 3.0 | 0.00 | 0.00 | 0.00 | 76 | 1020.7 |
| 20260506153201 | 62 | 110 | 1.0 | 3.0 | 0.00 | 0.00 | 0.00 | 78 | 1020.6 |
| 20260506152700 | 62 | 100 | 0.0 | 2.0 | 0.00 | 0.00 | 0.00 | 79 | 1020.7 |
| 20260506152201 | 61 | 56 | 0.0 | 2.0 | 0.00 | 0.00 | 0.00 | 80 | 1020.6 |
| 20260506151659 | 60 | 306 | 0.0 | 0.0 | 0.00 | 0.00 | 0.00 | 81 | 1020.5 |
| 20260506151200 | 60 | 300 | 0.0 | 0.0 | 0.00 | 0.00 | 0.00 | 82 | 1020.6 |
| 20260506150659 | 59 | 298 | 0.0 | 0.0 | 0.00 | 0.00 | 0.00 | 83 | 1020.6 |
| 20260506150156 | 58 | 298 | 0.0 | 0.0 | 0.00 | 0.00 | 0.00 | 84 | 1020.6 |
| 20260506145700 | 58 | 298 | 0.0 | 0.0 | 0.00 | 0.00 | 0.00 | 84 | 1020.5 |
| 20260506145200 | 57 | 298 | 0.0 | 0.0 | 0.00 | 0.00 | 0.00 | 85 | 1020.5 |
| 20260506144658 | 56 | 298 | 0.0 | 0.0 | 0.00 | 0.00 | 0.00 | 85 | 1020.4 |
| 20260506144158 | 56 | 298 | 0.0 | 0.0 | 0.00 | 0.00 | 0.00 | 86 | 1020.3 |
| 20260506143657 | 56 | 298 | 0.0 | 0.0 | 0.00 | 0.00 | 0.00 | 86 | 1020.3 |
| 20260506143158 | 55 | 298 | 0.0 | 0.0 | 0.00 | 0.00 | 0.00 | 86 | 1020.3 |
| 20260506142657 | 55 | 298 | 0.0 | 0.0 | 0.00 | 0.00 | 0.00 | 86 | 1020.2 |
| 20260506142158 | 55 | 298 | 0.0 | 0.0 | 0.00 | 0.00 | 0.00 | 86 | 1020.2 |
| 20260506141657 | 54 | 298 | 0.0 | 1.0 | 0.00 | 0.00 | 0.00 | 86 | 1020.1 |
| 20260506141158 | 54 | 298 | 0.0 | 2.0 | 0.00 | 0.00 | 0.00 | 86 | 1020.0 |
| 20260506140656 | 54 | 298 | 0.0 | 2.0 | 0.00 | 0.00 | 0.00 | 85 | 1020.0 |
| 20260506140157 | 54 | 298 | 1.0 | 2.0 | 0.00 | 0.00 | 0.00 | 85 | 1019.9 |
| 20260506135657 | 54 | 298 | 0.0 | 2.0 | 0.00 | 0.00 | 0.00 | 85 | 1019.9 |
| 20260506135157 | 54 | 298 | 1.0 | 1.0 | 0.00 | 0.00 | 0.00 | 86 | 1019.8 |
| 20260506134656 | 53 | 298 | 0.0 | 0.0 | 0.00 | 0.00 | 0.00 | 86 | 1019.8 |
| 20260506134416 | 53 | 298 | 0.0 | 1.0 | 0.00 | 0.00 | 0.00 | 86 | 1019.8 |
| 20260506133656 | 53 | 298 | 0.0 | 1.0 | 0.00 | 0.00 | 0.00 | 86 | 1019.7 |
| 20260506133638 | 53 | 298 | 0.0 | 1.0 | 0.00 | 0.00 | 0.00 | 86 | 1019.6 |
| 20260506132656 | 53 | 298 | 0.0 | 2.0 | 0.00 | 0.00 | 0.00 | 87 | 1019.5 |
| 20260506132157 | 53 | 298 | 0.0 | 2.0 | 0.00 | 0.00 | 0.00 | 87 | 1019.6 |
| 20260506131655 | 53 | 298 | 1.0 | 2.0 | 0.00 | 0.00 | 0.00 | 87 | 1019.6 |
| 20260506131633 | 53 | 298 | 0.0 | 1.0 | 0.00 | 0.00 | 0.00 | 87 | 1019.5 |
| 20260506130917 | 53 | 298 | 0.0 | 2.0 | 0.00 | 0.00 | 0.00 | 87 | 1019.5 |
| 20260506130156 | 53 | 298 | 0.0 | 2.0 | 0.00 | 0.00 | 0.00 | 87 | 1019.5 |
| 20260506125654 | 53 | 298 | 0.0 | 0.0 | 0.00 | 0.00 | 0.00 | 87 | 1019.4 |
| 20260506125156 | 53 | 298 | 0.0 | 0.0 | 0.00 | 0.00 | 0.00 | 87 | 1019.3 |
| 20260506124655 | 53 | 298 | 0.0 | 0.0 | 0.00 | 0.00 | 0.00 | 87 | 1019.3 |
| 20260506124157 | 53 | 298 | 0.0 | 0.0 | 0.00 | 0.00 | 0.00 | 87 | 1019.3 |
| 20260506123656 | 53 | 298 | 0.0 | 1.0 | 0.00 | 0.00 | 0.00 | 87 | 1019.3 |
| 20260506123156 | 54 | 298 | 0.0 | 1.0 | 0.00 | 0.00 | 0.00 | 87 | 1019.3 |
| 20260506123142 | 54 | 298 | 0.0 | 1.0 | 0.00 | 0.00 | 0.00 | 86 | 1019.3 |
| 20260506122156 | 54 | 298 | 0.0 | 1.0 | 0.00 | 0.00 | 0.00 | 86 | 1019.3 |
| 20260506121654 | 54 | 298 | 0.0 | 1.0 | 0.00 | 0.00 | 0.00 | 86 | 1019.2 |
| 20260506121419 | 54 | 298 | 0.0 | 2.0 | 0.00 | 0.00 | 0.00 | 85 | 1019.3 |
| 20260506120654 | 54 | 298 | 0.0 | 2.0 | 0.00 | 0.00 | 0.00 | 84 | 1019.2 |
| 20260506120154 | 54 | 296 | 0.0 | 3.0 | 0.00 | 0.00 | 0.00 | 84 | 1019.2 |
| 20260506115655 | 54 | 296 | 0.0 | 3.0 | 0.00 | 0.00 | 0.00 | 84 | 1019.4 |
| 20260506115155 | 54 | 296 | 2.0 | 3.0 | 0.00 | 0.00 | 0.00 | 84 | 1019.4 |
| 20260506114654 | 54 | 296 | 2.0 | 2.0 | 0.00 | 0.00 | 0.00 | 84 | 1019.4 |
| 20260506114155 | 54 | 296 | 0.0 | 2.0 | 0.00 | 0.00 | 0.00 | 84 | 1019.3 |
| 20260506113654 | 54 | 296 | 0.0 | 4.0 | 0.00 | 0.00 | 0.00 | 84 | 1019.2 |
| 20260506113153 | 54 | 295 | 1.0 | 4.0 | 0.00 | 0.00 | 0.00 | 84 | 1019.3 |
| 20260506112653 | 54 | 295 | 3.0 | 5.0 | 0.00 | 0.00 | 0.00 | 84 | 1019.2 |
| 20260506112153 | 54 | 295 | 3.0 | 5.0 | 0.00 | 0.00 | 0.00 | 84 | 1019.3 |
| 20260506111653 | 54 | 302 | 4.0 | 5.0 | 0.00 | 0.00 | 0.00 | 83 | 1019.4 |
| 20260506111153 | 54 | 303 | 2.0 | 3.0 | 0.00 | 0.00 | 0.00 | 84 | 1019.3 |
| 20260506110652 | 54 | 305 | 2.0 | 3.0 | 0.00 | 0.00 | 0.00 | 83 | 1019.2 |
| 20260506110152 | 54 | 305 | 2.0 | 4.0 | 0.00 | 0.00 | 0.00 | 83 | 1019.2 |
| 20260506105652 | 54 | 305 | 2.0 | 5.0 | 0.00 | 0.00 | 0.00 | 83 | 1019.1 |
| 20260506105639 | 54 | 305 | 3.0 | 5.0 | 0.00 | 0.00 | 0.00 | 82 | 1019.2 |
| 20260506104652 | 54 | 305 | 4.0 | 5.0 | 0.00 | 0.00 | 0.00 | 82 | 1019.2 |
| 20260506104416 | 54 | 303 | 4.0 | 5.0 | 0.00 | 0.00 | 0.00 | 82 | 1019.2 |
| 20260506103652 | 54 | 32 | 2.0 | 2.0 | 0.00 | 0.00 | 0.00 | 83 | 1019.2 |
| 20260506103421 | 54 | 32 | 1.0 | 2.0 | 0.00 | 0.00 | 0.00 | 83 | 1019.1 |
| 20260506102654 | 54 | 32 | 0.0 | 3.0 | 0.00 | 0.00 | 0.00 | 82 | 1019.0 |
| 20260506102153 | 55 | 32 | 1.0 | 3.0 | 0.00 | 0.00 | 0.00 | 82 | 1019.0 |
| 20260506101654 | 55 | 32 | 2.0 | 3.0 | 0.00 | 0.00 | 0.00 | 82 | 1019.0 |
| 20260506101411 | 55 | 32 | 2.0 | 3.0 | 0.00 | 0.00 | 0.00 | 82 | 1018.9 |
| 20260506100920 | 55 | 32 | 2.0 | 3.0 | 0.00 | 0.00 | 0.00 | 82 | 1019.0 |
| 20260506100152 | 55 | 32 | 2.0 | 2.0 | 0.00 | 0.00 | 0.00 | 81 | 1018.9 |
| 20260506095653 | 55 | 32 | 1.0 | 2.0 | 0.00 | 0.00 | 0.00 | 81 | 1019.0 |
| 20260506095152 | 55 | 32 | 0.0 | 2.0 | 0.00 | 0.00 | 0.00 | 81 | 1019.0 |
| 20260506094653 | 55 | 34 | 1.0 | 3.0 | 0.00 | 0.00 | 0.00 | 81 | 1018.9 |
| 20260506094151 | 55 | 32 | 0.0 | 3.0 | 0.00 | 0.00 | 0.00 | 80 | 1018.9 |
| 20260506093652 | 55 | 32 | 2.0 | 3.0 | 0.00 | 0.00 | 0.00 | 80 | 1019.1 |
| 20260506093152 | 56 | 34 | 2.0 | 2.0 | 0.00 | 0.00 | 0.00 | 80 | 1019.1 |
| 20260506092652 | 56 | 34 | 0.0 | 2.0 | 0.00 | 0.00 | 0.00 | 79 | 1019.0 |
| 20260506092152 | 56 | 34 | 1.0 | 2.0 | 0.00 | 0.00 | 0.00 | 79 | 1019.1 |
| 20260506091653 | 56 | 34 | 0.0 | 1.0 | 0.00 | 0.00 | 0.00 | 79 | 1019.1 |
| 20260506091634 | 56 | 34 | 0.0 | 2.0 | 0.00 | 0.00 | 0.00 | 79 | 1019.1 |
| 20260506090908 | 56 | 34 | 1.0 | 3.0 | 0.00 | 0.00 | 0.00 | 78 | 1019.1 |
| 20260506090149 | 56 | 34 | 2.0 | 4.0 | 0.00 | 0.00 | 0.00 | 78 | 1019.2 |
| 20260506085651 | 56 | 34 | 1.0 | 5.0 | 0.00 | 0.00 | 0.00 | 78 | 1019.2 |
| 20260506085150 | 56 | 34 | 4.0 | 5.0 | 0.00 | 0.00 | 0.00 | 77 | 1019.2 |
| 20260506084650 | 56 | 39 | 0.0 | 3.0 | 0.00 | 0.00 | 0.00 | 77 | 1019.2 |
| 20260506084149 | 56 | 38 | 2.0 | 4.0 | 0.00 | 0.00 | 0.00 | 77 | 1019.2 |
| 20260506083650 | 56 | 39 | 3.0 | 4.0 | 0.00 | 0.00 | 0.00 | 77 | 1019.2 |
| 20260506083149 | 56 | 39 | 3.0 | 4.0 | 0.00 | 0.00 | 0.00 | 78 | 1019.2 |
| 20260506082650 | 56 | 37 | 4.0 | 4.0 | 0.00 | 0.00 | 0.00 | 78 | 1019.2 |
| 20260506082148 | 56 | 295 | 0.0 | 4.0 | 0.00 | 0.00 | 0.00 | 78 | 1019.2 |
| 20260506081650 | 56 | 295 | 2.0 | 4.0 | 0.00 | 0.00 | 0.00 | 79 | 1019.2 |
| 20260506081148 | 56 | 295 | 2.0 | 4.0 | 0.00 | 0.00 | 0.00 | 79 | 1019.2 |
| 20260506080916 | 56 | 295 | 2.0 | 7.0 | 0.00 | 0.00 | 0.00 | 80 | 1019.2 |
| 20260506080148 | 56 | 295 | 3.0 | 7.0 | 0.00 | 0.00 | 0.00 | 80 | 1019.2 |
| 20260506073148 | 55 | 272 | 7.0 | 9.0 | 0.00 | 0.00 | 0.00 | 79 | 1019.1 |
| 20260506072649 | 55 | 251 | 6.0 | 9.0 | 0.00 | 0.00 | 0.00 | 79 | 1019.0 |
| 20260506072147 | 56 | 274 | 6.0 | 7.0 | 0.00 | 0.00 | 0.00 | 77 | 1019.0 |
| 20260506071649 | 56 | 276 | 4.0 | 5.0 | 0.00 | 0.00 | 0.00 | 76 | 1019.0 |
| 20260506071147 | 56 | 278 | 4.0 | 5.0 | 0.00 | 0.00 | 0.00 | 75 | 1019.0 |
| 20260506070906 | 57 | 223 | 4.0 | 5.0 | 0.00 | 0.00 | 0.00 | 74 | 1018.9 |
| 20260506070408 | 58 | 221 | 2.0 | 4.0 | 0.00 | 0.00 | 0.00 | 73 | 1018.8 |